Location: Kissing
(48.3027°N, 10.9775°E)
Time: 08:55:23
(UTC+00:00)

STARLINK-1316 - Pass Details

Date: 07 June 2020
Orbit: 549 x 550 km, 53.0° (Epoch: 15 July)

Event Time Altitude Azimuth Distance (km) Brightness Sun altitude
Exits shadow 00:10:59 27° 246° (WSW) 1,058 4.7 -17.8°
Maximum altitude 00:13:09 86° 333° (NNW) 545 3.5 -17.7°
Drops below altitude 10° 00:17:14 10° 64° (ENE) 1,798 6.8 -17.6°
Sets 00:19:27 0° 65° (ENE) 2,689 7.8 -17.5°
